Location: Vancouver
(49.2500°N, 123.1330°W)
Time: 02:19:11
(UTC-07:00)

Daily predictions for brighter satellites

Satellite Brightness Start Highest point End
(mag) Time Altitude Azimuth Time Altitude Azimuth Time Altitude Azimuth
Cosmos 1844 Rocket 3.4 00:01:47 10° SW 00:07:21 55° NW 00:12:55 10° NNE
CZ-4C R/B 4.2 00:07:31 23° SE 00:09:35 41° ENE 00:13:16 10° N
NOSS 3-2 (C) 4.0 00:02:32 10° NW 00:09:57 80° SW 00:15:56 20° SSE
Spot 4 4.2 00:07:19 24° S 00:10:09 58° W 00:14:59 10° NNW
Cosmos 2058 4.2 00:12:13 22° ESE 00:13:40 27° E 00:17:12 10° NNE
Cosmos 1328 3.7 00:12:17 31° S 00:14:03 81° E 00:18:02 10° NNE
Cosmos 2082 Rocket 2.4 00:13:11 10° NNW 00:18:55 71° ENE 00:22:39 22° SE
Cosmos 1766 Rocket 3.9 00:17:38 30° SSE 00:19:33 51° E 00:23:54 10° NNE
Cosmos 2315 Rocket 4.0 00:16:12 21° S 00:20:38 85° W 00:27:02 10° N
Meteor 2-2 Rocket 4.2 00:15:12 10° NNW 00:20:53 90° ENE 00:24:08 27° S
Cosmos 1408 Rocket 4.1 00:21:56 29° SSE 00:23:46 47° E 00:28:04 10° NNE
Lacrosse 5 2.2 00:24:40 10° WSW 00:29:44 68° NNW 00:34:48 10° NE
Meteor 2-10 Rocket 4.4 00:26:34 10° N 00:31:19 39° ENE 00:34:29 19° SE
Cosmos 1833 Rocket 2.6 00:26:50 10° NNW 00:32:29 86° WSW 00:35:42 27° SSE
SL-27 R/B 2.6 00:29:55 10° NNW 00:33:35 72° ENE 00:34:52 37° SE
CZ-4 R/B 3.8 00:29:04 10° NNE 00:33:57 89° WNW 00:36:35 27° SSW
ATLAS 5 CENTAUR R/B 2.4 00:33:12 30° SSE 00:34:24 35° ESE 00:38:52 10° NE
Cosmos 1151 Rocket 3.7 00:31:27 10° N 00:35:36 44° ENE 00:37:36 26° SE
Okean 3 Rocket 3.7 00:33:31 27° SSW 00:35:51 68° WNW 00:40:14 10° N
H-2A R/B 2.2 00:34:54 30° SE 00:36:45 62° ENE 00:40:49 10° N
Cosmos 2228 Rocket 3.8 00:32:33 10° N 00:36:53 45° ENE 00:39:05 25° SE
Meteor 1-11 4.2 00:34:52 26° S 00:38:12 81° E 00:44:01 10° NNE
Cosmos 2184 Rocket 4.1 00:31:51 10° N 00:38:15 78° E 00:42:02 26° SSE
Cosmos 1461 3.2 00:36:14 30° S 00:38:23 59° ESE 00:43:07 10° NE
Cosmos 1076 Rocket 4.0 00:37:20 24° SW 00:39:43 53° WNW 00:43:54 10° N
NOSS 3-4 (A) 3.5 00:36:14 21° SSW 00:40:30 66° SE 00:46:56 10° NE
NOSS 3-4 (C) 3.5 00:36:22 21° SSW 00:40:34 66° SE 00:47:01 10° NE
Cosmos 1455 2.1 00:38:06 10° NNW 00:41:52 73° W 00:43:08 39° S
NOSS 2-2 (E) 3.7 00:41:03 36° S 00:42:12 47° ESE 00:46:38 10° NE
Cosmos 2154 Rocket 4.5 00:38:14 10° N 00:44:28 54° ENE 00:48:34 22° SE
Cosmos 1626 3.4 00:47:58 20° SW 00:49:56 35° WNW 00:53:24 10° N
CZ-2C R/B 4.0 00:45:05 10° N 00:50:02 35° WNW 00:54:53 10° SW
EP 1 4.0 00:50:23 80° ESE 00:50:23 80° ESE 00:52:57 10° NE
CENTAUR R/B 3.1 00:48:41 10° NW 00:56:31 81° SW 01:03:12 18° SSE
USA 234 3.5 00:53:14 10° ENE 00:59:34 49° SE 01:03:28 23° SSW
Meteor 2-21 4.4 00:54:02 10° N 01:00:08 85° E 01:03:35 27° SSE
Mayak -1.1 00:56:15 10° N 01:00:26 70° WNW 01:02:21 31° SSW
ADEOS Rocket 2.9 00:59:40 10° NNE 01:05:24 85° WNW 01:09:15 25° SSW
RESURS DK-1 2.6 01:05:46 37° SSE 01:07:00 52° ESE 01:11:03 10° NE
Cosmos 1943 Rocket 4.3 01:05:40 10° ESE 01:07:39 12° E 01:09:40 10° ENE
Cosmos 1441 Rocket 3.4 01:06:36 10° NNW 01:10:23 57° W 01:11:31 39° SSW
NOSS 2-2 (D) 3.3 01:10:01 35° SSW 01:11:36 73° SE 01:16:13 10° NE
Cosmos 1328 Rocket 3.8 01:08:15 10° NNW 01:12:30 55° W 01:14:11 33° SSW
Cosmos 1743 Rocket 3.5 01:11:46 35° S 01:13:32 76° E 01:17:57 10° NNE
Cosmos 1869 3.3 01:10:21 10° N 01:14:22 82° E 01:15:50 38° SSE
Cosmos 405 Rocket 2.7 01:11:52 10° NNW 01:15:33 64° W 01:16:35 42° SSW
Cosmos 2151 3.0 01:16:38 35° SSW 01:18:23 80° WNW 01:22:39 10° N
IKONOS-2 4.4 01:16:57 35° SSE 01:18:42 89° E 01:22:59 10° NNW
Cosmos 2278 Rocket 3.1 01:13:52 11° SW 01:19:06 47° NW 01:24:36 10° NNE
Cosmos 1703 4.5 01:19:55 22° WSW 01:21:47 33° WNW 01:25:22 10° N
COSMOS 2487 3.2 01:23:35 10° NNW 01:27:01 47° ENE 01:28:40 26° SE
Cosmos 371 Rocket 3.3 01:24:14 10° NNW 01:29:07 83° ENE 01:31:48 27° SSE
ALOS 2 4.0 01:30:54 21° SW 01:32:30 26° W 01:36:11 10° NW
ATLAS 3B R/B 4.3 01:29:20 10° WNW 01:33:00 16° WSW 01:35:17 13° SW
Nadezhda 1 Rocket 4.1 01:30:39 25° SSW 01:34:32 73° W 01:40:59 10° N
Sich 1 4.5 01:34:32 19° SE 01:36:40 28° E 01:40:26 10° NNE
SL-16 R/B 4.4 01:32:26 10° ESE 01:37:22 26° ENE 01:42:19 10° N
NOSS 2-2 (C) 3.6 01:35:06 24° SW 01:37:27 71° NW 01:42:11 10° NE
CZ-4B R/B 4.1 01:32:39 10° N 01:37:49 54° WNW 01:41:05 22° SW
CZ-4B R/B 3.6 01:37:33 11° ESE 01:39:36 19° ENE 01:41:53 10° NNE
Meteor 2-16 Rocket 4.5 01:33:53 10° NNW 01:40:01 74° W 01:43:34 27° S
Cosmos 1500 Rocket 3.6 01:38:45 33° SSW 01:40:36 72° W 01:44:57 10° N
SL-8 R/B 3.6 01:37:01 10° WSW 01:41:51 75° S 01:46:41 10° E
Cosmos 1707 Rocket 4.3 01:38:38 10° N 01:42:56 47° ENE 01:45:31 21° SE
CZ-4C R/B 3.9 01:43:35 25° SE 01:45:23 47° ENE 01:48:57 10° N
PSLV R/B 4.3 01:42:20 10° NNE 01:46:54 50° E 01:49:13 27° SSE
Cosmos 1241 Rocket 4.4 01:43:04 22° SW 01:47:14 90° NW 01:53:33 10° NE
Cosmos 2058 4.2 01:48:25 20° WSW 01:50:31 31° WNW 01:54:15 10° N
Cosmos 2369 Rocket 3.1 01:49:38 22° SSE 01:52:31 36° ESE 01:57:37 10° NE
Cosmos 1633 Rocket 4.4 01:50:22 19° SE 01:52:45 31° E 01:56:39 10° NNE
Cosmos 676 Rocket 4.0 01:50:48 29° S 01:53:25 68° ESE 01:58:35 10° NNE
Cosmos 1954 Rocket 4.1 01:52:32 29° S 01:55:07 62° ESE 02:00:14 10° NNE
BREEZE-M DEB (TANK) 2.8 01:51:02 10° WSW 01:55:22 70° SSE 01:59:01 10° E
ATLAS 2AS CENTAUR R/B 4.5 01:48:35 10° W 01:55:59 37° NNW 02:03:24 10° NE
Cosmos 332 Rocket 4.0 01:51:17 10° NNW 01:56:08 57° WSW 01:58:24 30° S
Cosmos 2297 4.2 01:52:13 19° SW 01:56:19 58° WNW 02:02:00 10° NNE
Cosmos 1140 Rocket 3.6 01:55:37 29° S 01:58:13 66° ESE 02:03:19 10° NNE
Cosmos 1933 3.6 01:55:24 10° N 01:59:25 64° E 02:01:28 27° SSE
Resurs 1-4 Rocket 4.3 01:56:34 10° NE 01:59:58 17° E 02:03:20 10° SE
Cosmos 2082 Rocket 3.7 01:58:12 10° NW 02:02:27 22° W 02:04:29 18° SW
Cosmos 407 Rocket 3.7 02:00:41 24° SW 02:03:44 65° WNW 02:08:54 10° NNE
MOS 1 Rocket 3.4 02:03:13 10° NNE 02:08:23 84° WNW 02:11:01 28° SSW
Cosmos 1190 Rocket 4.4 02:08:32 22° SW 02:11:52 56° WNW 02:17:01 10° NNE
H-2A R/B 4.0 02:12:00 13° WSW 02:13:10 14° W 02:15:28 10° NW
Lacrosse 5 3.5 02:08:42 10° WNW 02:13:23 35° N 02:18:03 10° ENE
Cosmos 614 Rocket 3.9 02:10:44 27° SSW 02:13:38 89° WNW 02:18:48 10° NNE
Cosmos 1666 Rocket 3.9 02:11:33 26° SSE 02:13:48 58° E 02:18:04 10° NNE
Cosmos 1570 Rocket 4.4 02:10:23 10° NNW 02:15:40 64° ENE 02:20:44 11° SE
ATLAS 5 CENTAUR R/B 2.7 02:14:43 11° WSW 02:18:56 45° NW 02:23:56 10° NE
Cosmos 1825 3.9 02:16:57 15° SE 02:19:14 25° E 02:22:22 10° NE
GP-B 4.4 02:17:22 10° NNE 02:21:28 35° E 02:24:53 14° SE
Landsat 5 3.2 02:22:29 26° SSE 02:24:32 88° ENE 02:28:25 10° NNW
Cosmos 1782 4.5 02:21:09 10° N 02:24:42 29° ENE 02:28:11 10° SE
Cosmos 2242 Rocket 4.3 02:21:00 10° N 02:25:25 51° ENE 02:29:01 15° SSE
In-Cosmos 22 Rocket 4.2 02:24:47 25° SSW 02:27:57 68° WNW 02:33:20 10° N
Meteor 1-26 Rocket 4.3 02:22:08 10° N 02:27:58 84° ENE 02:32:20 18° SSE
Spot 2 4.4 02:30:27 10° NNE 02:34:55 59° ESE 02:37:28 23° S
Cosmos 1850 Rocket 4.2 02:32:43 23° S 02:35:54 63° ESE 02:41:06 10° NNE
Cosmos 2181 Rocket 4.3 02:32:27 21° SSW 02:36:41 60° WNW 02:42:54 10° N
Cosmos 1892 2.8 02:35:38 29° SSW 02:37:23 63° WNW 02:41:10 10° N
USA 234 3.5 02:36:17 10° NE 02:42:48 71° NNW 02:49:19 10° WSW
Cosmos 1408 3.1 02:41:19 22° SSE 02:43:28 53° E 02:47:07 10° NNE
RESURS DK-1 4.4 02:42:01 10° W 02:45:20 23° NW 02:48:40 10° N
CRYOSAT 2 4.3 02:42:48 21° S 02:46:08 81° W 02:51:03 10° N
CENTAUR R/B 4.3 02:40:25 10° WNW 02:46:29 24° WSW 02:50:19 17° SW
NPP 4.2 02:41:20 10° NNE 02:46:36 51° E 02:50:47 16° S
ARIANE 5 R/B 4.3 02:45:20 10° NE 02:49:22 24° E 02:53:22 10° SE
Cosmos 1943 Rocket 2.2 02:46:40 21° SSW 02:50:22 73° ESE 02:55:58 10° NNE
Cosmos 405 3.1 02:51:35 24° S 02:53:33 67° E 02:57:05 10° NNE
Cosmos 2218 Rocket 4.4 02:49:16 10° NNW 02:55:09 48° W 02:59:21 19° SSW
Cosmos 1689 Rocket 2.5 02:57:22 29° SSW 02:58:35 48° W 03:01:34 10° NNW
Lacrosse 4 Rocket 3.5 02:55:44 10° SSE 02:58:52 19° ESE 03:02:03 10° ENE
COSMOS 2455 3.7 02:55:43 10° NNW 03:01:38 53° NE 03:07:30 10° SE
CZ-2D R/B 2.8 02:56:35 10° NNE 03:01:43 50° E 03:06:20 13° S
COSMOS 2487 4.5 03:00:01 10° WNW 03:01:55 14° W 03:02:22 14° WSW
Cosmos 1763 Rocket 3.6 02:58:50 10° NNW 03:03:57 76° ENE 03:09:00 10° SSE
Cosmos 304 Rocket 4.4 02:59:58 10° NW 03:04:22 37° WSW 03:07:09 20° SSW
UNK 3.8 03:01:11 12° SSE 03:05:35 88° ENE 03:10:17 10° NNW
Cosmos 1862 Rocket 3.7 03:04:35 10° NNW 03:09:03 64° W 03:12:26 17° S
Cosmos 1703 Rocket 4.3 03:05:14 10° N 03:09:35 52° ENE 03:13:52 10° SSE
Meteor 2-3 Rocket 3.8 03:06:18 18° SSW 03:10:36 72° WNW 03:16:25 10° N
CZ-4B R/B 2.4 03:10:59 22° SW 03:12:01 26° W 03:14:43 10° NW
Sich 1 4.1 03:11:31 17° SW 03:14:16 32° WNW 03:18:16 10° N
Cosmos 1814 Rocket 4.1 03:08:58 10° NNW 03:14:20 84° ENE 03:19:36 10° SSE
IRS-P3 4.2 03:09:16 10° NNE 03:14:37 77° ESE 03:19:07 15° S
ADEOS II 4.4 03:11:54 10° NE 03:15:30 18° E 03:19:05 10° SE
Cosmos 1818 3.5 03:11:10 10° NW 03:16:41 79° SW 03:22:08 10° SSE
Cosmos 2208 Rocket 4.4 03:14:07 10° NNW 03:19:15 47° WSW 03:23:55 13° S
Cosmos 1741 Rocket 4.3 03:15:43 17° SW 03:19:46 63° WNW 03:25:02 10° NNE
SL-16 R/B 2.5 03:14:20 10° S 03:20:30 71° WSW 03:26:41 10° NNW
SL-8 R/B 3.6 03:19:31 10° W 03:24:22 77° S 03:29:11 10° ESE
BREEZE-M TANK 2.8 03:24:17 16° SW 03:26:32 33° S 03:29:00 10° E
Cosmos 540 Rocket 4.2 03:23:42 10° NNW 03:28:46 54° ENE 03:33:47 10° SE
Cosmos 1633 Rocket 4.2 03:27:27 15° SW 03:30:31 30° WNW 03:34:29 10° N
Okean 1-7 3.5 03:26:20 10° N 03:30:44 63° ENE 03:35:05 10° SSE
Cosmos 841 Rocket 3.5 03:26:21 10° NNW 03:31:38 89° ENE 03:36:49 10° SSE
IRS-1D 3.7 03:27:05 10° NNE 03:32:17 73° ESE 03:37:09 11° S
SL-08 R/B 3.5 03:28:17 12° S 03:32:40 55° W 03:37:19 10° NNW
Cosmos 1470 Rocket 4.0 03:31:07 16° SSW 03:34:31 49° WNW 03:38:54 10° N
Cosmos 2227 Rocket 4.2 03:30:26 10° NNW 03:35:32 32° NE 03:40:36 10° ESE
Cosmos 2369 Rocket 2.9 03:31:25 12° SW 03:36:27 45° NW 03:41:53 10° NNE
Cosmos 1535 Rocket 4.5 03:30:40 10° N 03:36:48 84° W 03:42:55 10° S
Cosmos 292 Rocket 3.7 03:33:41 10° NNW 03:38:30 74° WSW 03:43:19 10° SSE
Resurs 1-4 Rocket 2.2 03:35:05 10° NNE 03:40:27 80° WNW 03:45:26 12° SSW
Cosmos 1184 Rocket 3.7 03:37:39 10° N 03:40:50 48° ENE 03:44:00 10° SSE
Cosmos 1605 Rocket 4.3 03:35:11 10° N 03:41:16 68° ENE 03:47:21 10° SSE
BREEZE-M DEB (TANK) 3.3 03:34:26 10° W 03:42:01 61° S 03:45:10 10° ESE
Cosmos 1606 3.7 03:38:45 10° NNW 03:42:06 30° W 03:44:45 14° SSW
Nadezhda 3 Rocket 4.2 03:37:32 13° SSW 03:43:16 63° WNW 03:49:36 10° N
H-2A R/B 2.5 03:43:28 10° N 03:47:33 67° WNW 03:51:06 12° SSW
SAR-Lupe-2 4.1 03:44:12 10° SSE 03:47:44 62° ENE 03:51:17 10° N
MOZ.5/SAFIR/RUBIN 5/SL-8 4.0 03:49:49 10° S 03:54:23 50° W 03:58:57 10° NNW
Cosmos 1825 3.4 03:51:48 12° SW 03:54:42 28° WNW 03:58:01 10° NNW
Cosmos 1933 Rocket 4.4 03:53:28 12° SW 03:57:06 35° WNW 04:01:09 10° N
Lacrosse 5 3.3 03:52:28 10° NW 03:57:18 41° NNE 04:02:06 10° E
GP-B 4.4 03:54:54 10° NNW 03:58:39 27° WNW 04:02:20 10° SW
Cosmos 1486 Rocket 4.3 03:54:25 10° S 03:59:40 67° ESE 04:04:59 10° NNE
Cosmos 1782 4.0 03:57:37 10° NNW 04:00:57 26° W 04:04:09 10° SW
Cosmos 1437 Rocket 3.0 03:58:16 10° S 04:02:21 74° E 04:06:29 10° NNE
Cosmos 1934 Rocket 4.1 03:56:23 10° NNW 04:02:39 63° W 04:08:51 10° S
PSLV R/B 4.4 03:59:09 10° S 04:03:12 46° W 04:07:17 10° NNW
ATLAS 5 CENTAUR R/B 4.3 04:01:17 10° WNW 04:04:56 20° NNW 04:08:54 10° NE
BREEZE-M DEB (TANK) 3.3 04:07:57 10° W 04:10:07 25° SSW 04:14:00 10° SE
Cosmos 2221 Rocket 3.6 04:07:26 10° NNW 04:11:51 68° W 04:16:15 10° S
Cosmos 1812 3.2 04:12:07 10° N 04:16:00 64° E 04:19:50 10° SSE
USA 229 DEB 3.8 04:12:41 10° NW 04:19:50 76° SW 04:27:12 10° SSE
USA 229 3.8 04:12:47 10° NW 04:19:56 76° SW 04:27:18 10° SSE
Cosmos 1633 3.8 04:16:35 10° SSE 04:19:58 40° E 04:23:24 10° NNE
Meteor 1-27 Rocket 4.1 04:18:58 10° NNW 04:24:31 49° W 04:30:07 10° SSW
SeaSat 1 3.5 04:19:53 10° SE 04:24:40 52° NE 04:29:28 10° NNW
Cosmos 1656 Rocket 4.1 04:19:18 10° SW 04:24:52 54° NW 04:30:24 10° NNE
USA 234 4.3 04:19:10 10° ENE 04:25:22 46° N 04:31:33 10° WNW
Cosmos 1503 Rocket 4.5 04:20:20 10° S 04:25:24 59° ESE 04:30:30 10° NNE
